TimePST,TemperatureF,Dew PointF,Humidity,Sea Level PressureIn,VisibilityMPH,Wind Direction,Wind SpeedMPH,Gust SpeedMPH,PrecipitationIn,Events,Conditions,WindDirDegrees,DateUTC
12:15 AM,30.2,21.2,69,29.72,10.0,Calm,Calm,-,N/A,,Mostly Cloudy,0,2012-11-09 08:15:00
12:35 AM,30.2,21.2,69,29.72,10.0,SE,3.5,-,N/A,,Scattered Clouds,140,2012-11-09 08:35:00
12:55 AM,28.4,19.4,69,29.72,10.0,Calm,Calm,-,N/A,,Scattered Clouds,0,2012-11-09 08:55:00
1:15 AM,28.4,19.4,69,29.72,10.0,Calm,Calm,-,N/A,,Scattered Clouds,0,2012-11-09 09:15:00
1:35 AM,28.4,21.2,74,29.72,10.0,Calm,Calm,-,N/A,,Mostly Cloudy,0,2012-11-09 09:35:00
1:55 AM,26.6,19.4,74,29.73,10.0,Calm,Calm,-,N/A,,Scattered Clouds,0,2012-11-09 09:55:00
2:15 AM,28.4,21.2,74,29.73,10.0,NW,4.6,-,N/A,,Mostly Cloudy,320,2012-11-09 10:15:00
2:35 AM,30.2,24.8,80,29.73,10.0,WNW,3.5,-,N/A,,Mostly Cloudy,300,2012-11-09 10:35:00
2:55 AM,28.4,21.2,74,29.73,10.0,Calm,Calm,-,N/A,,Scattered Clouds,0,2012-11-09 10:55:00
3:15 AM,32.0,24.8,75,29.73,10.0,NW,8.1,-,N/A,,Mostly Cloudy,310,2012-11-09 11:15:00
3:55 AM,33.8,24.8,70,29.73,10.0,WNW,6.9,-,N/A,,Overcast,300,2012-11-09 11:55:00
4:15 AM,32.0,21.2,64,29.74,10.0,Calm,Calm,-,N/A,,Overcast,0,2012-11-09 12:15:00
4:35 AM,30.2,21.2,69,29.74,10.0,North,3.5,-,N/A,,Mostly Cloudy,350,2012-11-09 12:35:00
4:55 AM,28.4,19.4,69,29.74,10.0,North,4.6,-,N/A,,Overcast,350,2012-11-09 12:55:00
5:15 AM,28.4,21.2,74,29.75,10.0,North,5.8,-,N/A,,Overcast,350,2012-11-09 13:15:00
5:35 AM,32.0,24.8,75,29.75,10.0,NNW,5.8,-,N/A,,Overcast,330,2012-11-09 13:35:00
5:55 AM,30.2,23.0,75,29.75,5.0,NE,4.6,-,N/A,,Overcast,50,2012-11-09 13:55:00
6:15 AM,30.2,24.8,80,29.75,10.0,Calm,Calm,-,N/A,,Overcast,0,2012-11-09 14:15:00
6:55 AM,30.2,23.0,75,29.76,10.0,East,3.5,-,N/A,,Overcast,100,2012-11-09 14:55:00
7:15 AM,30.2,23.0,75,29.77,10.0,Calm,Calm,-,N/A,,Overcast,0,2012-11-09 15:15:00
7:35 AM,30.2,23.0,75,29.77,10.0,Calm,Calm,-,N/A,,Scattered Clouds,0,2012-11-09 15:35:00
7:55 AM,30.2,23.0,75,29.77,10.0,Calm,Calm,-,N/A,,Clear,0,2012-11-09 15:55:00
8:15 AM,30.2,23.0,75,29.77,10.0,ENE,3.5,-,N/A,,Clear,60,2012-11-09 16:15:00
8:35 AM,30.2,23.0,75,29.77,10.0,NE,3.5,-,N/A,,Scattered Clouds,50,2012-11-09 16:35:00
8:55 AM,30.2,24.8,80,29.77,10.0,Calm,Calm,-,N/A,,Partly Cloudy,0,2012-11-09 16:55:00
9:15 AM,33.8,26.6,75,29.78,10.0,Calm,Calm,-,N/A,,Clear,0,2012-11-09 17:15:00
9:35 AM,35.6,28.4,75,29.78,10.0,Calm,Calm,-,N/A,,Clear,0,2012-11-09 17:35:00
9:55 AM,37.4,30.2,75,29.78,10.0,NW,6.9,-,N/A,,Clear,310,2012-11-09 17:55:00
10:15 AM,39.2,26.6,61,29.78,10.0,WNW,8.1,-,N/A,,Clear,300,2012-11-09 18:15:00
10:35 AM,39.2,26.6,61,29.78,10.0,West,9.2,-,N/A,,Partly Cloudy,280,2012-11-09 18:35:00
10:55 AM,39.2,24.8,56,29.78,10.0,NE,6.9,-,N/A,,Mostly Cloudy,50,2012-11-09 18:55:00
11:15 AM,37.4,24.8,60,29.77,10.0,NE,5.8,-,N/A,,Overcast,50,2012-11-09 19:15:00
11:35 AM,37.4,24.8,60,29.77,10.0,NE,3.5,-,N/A,,Overcast,40,2012-11-09 19:35:00
11:55 AM,37.4,24.8,60,29.76,10.0,NNE,4.6,-,N/A,,Overcast,20,2012-11-09 19:55:00
12:15 PM,39.2,24.8,56,29.76,10.0,NNW,3.5,-,N/A,,Mostly Cloudy,340,2012-11-09 20:15:00
12:35 PM,39.2,24.8,56,29.75,10.0,West,3.5,-,N/A,,Mostly Cloudy,280,2012-11-09 20:35:00
12:55 PM,39.2,24.8,56,29.75,10.0,NNE,8.1,-,N/A,,Overcast,30,2012-11-09 20:55:00
1:15 PM,35.6,21.2,56,29.76,1.8,NNE,6.9,-,N/A,,Overcast,30,2012-11-09 21:15:00
1:35 PM,35.6,24.8,65,29.75,10.0,ESE,3.5,-,N/A,,Mostly Cloudy,120,2012-11-09 21:35:00
1:55 PM,35.6,26.6,70,29.75,3.0,NNE,5.8,-,N/A,,Overcast,30,2012-11-09 21:55:00
2:15 PM,35.6,24.8,65,29.75,10.0,Calm,Calm,-,N/A,,Mostly Cloudy,0,2012-11-09 22:15:00
2:35 PM,37.4,28.4,70,29.75,10.0,Calm,Calm,-,N/A,,Mostly Cloudy,0,2012-11-09 22:35:00
2:55 PM,37.4,24.8,60,29.75,10.0,Calm,Calm,-,N/A,,Overcast,0,2012-11-09 22:55:00
3:15 PM,35.6,23.0,60,29.76,4.0,North,10.4,-,N/A,,Overcast,360,2012-11-09 23:15:00
3:35 PM,33.8,24.8,70,29.76,1.2,Calm,Calm,-,N/A,,Overcast,0,2012-11-09 23:35:00
3:55 PM,33.8,24.8,70,29.76,10.0,West,4.6,-,N/A,,Partly Cloudy,260,2012-11-09 23:55:00
4:15 PM,32.0,24.8,75,29.77,10.0,North,6.9,-,N/A,,Scattered Clouds,350,2012-11-10 00:15:00
4:35 PM,32.0,24.8,75,29.77,10.0,NNW,5.8,-,N/A,,Mostly Cloudy,340,2012-11-10 00:35:00
4:55 PM,32.0,24.8,75,29.77,10.0,NW,5.8,-,N/A,,Mostly Cloudy,320,2012-11-10 00:55:00
5:15 PM,32.0,26.6,80,29.78,10.0,WNW,4.6,-,N/A,,Mostly Cloudy,300,2012-11-10 01:15:00
5:35 PM,33.8,26.6,75,29.78,10.0,NW,4.6,-,N/A,,Mostly Cloudy,310,2012-11-10 01:35:00
5:55 PM,32.0,26.6,80,29.78,10.0,NNW,4.6,-,N/A,,Overcast,330,2012-11-10 01:55:00
6:15 PM,32.0,26.6,80,29.78,10.0,NW,4.6,-,N/A,,Overcast,320,2012-11-10 02:15:00
6:35 PM,32.0,26.6,80,29.78,10.0,Calm,Calm,-,N/A,,Overcast,0,2012-11-10 02:35:00
6:55 PM,32.0,24.8,75,29.78,10.0,West,3.5,-,N/A,,Overcast,270,2012-11-10 02:55:00
7:15 PM,30.2,24.8,80,29.78,10.0,Calm,Calm,-,N/A,,Mostly Cloudy,0,2012-11-10 03:15:00
7:35 PM,30.2,24.8,80,29.78,10.0,Calm,Calm,-,N/A,,Mostly Cloudy,0,2012-11-10 03:35:00
7:55 PM,30.2,24.8,80,29.78,10.0,Calm,Calm,-,N/A,,Overcast,0,2012-11-10 03:55:00
8:15 PM,28.4,21.2,74,29.79,10.0,Calm,Calm,-,N/A,,Overcast,0,2012-11-10 04:15:00
8:35 PM,28.4,21.2,74,29.79,10.0,Calm,Calm,-,N/A,,Overcast,0,2012-11-10 04:35:00
8:55 PM,30.2,23.0,75,29.79,10.0,SE,4.6,-,N/A,,Overcast,140,2012-11-10 04:55:00
9:15 PM,30.2,24.8,80,29.79,10.0,ESE,3.5,-,N/A,,Overcast,120,2012-11-10 05:15:00
9:35 PM,30.2,24.8,80,29.80,10.0,Calm,Calm,-,N/A,,Overcast,0,2012-11-10 05:35:00
9:55 PM,30.2,24.8,80,29.80,10.0,Calm,Calm,-,N/A,,Overcast,0,2012-11-10 05:55:00
10:15 PM,30.2,24.8,80,29.80,10.0,Calm,Calm,-,N/A,,Overcast,0,2012-11-10 06:15:00
10:35 PM,30.2,24.8,80,29.80,10.0,Calm,Calm,-,N/A,,Overcast,0,2012-11-10 06:35:00
10:55 PM,32.0,26.6,80,29.80,10.0,WSW,3.5,-,N/A,,Overcast,250,2012-11-10 06:55:00
11:15 PM,30.2,24.8,80,29.80,8.0,Calm,Calm,-,N/A,,Overcast,0,2012-11-10 07:15:00
11:35 PM,32.0,24.8,75,29.80,4.0,Calm,Calm,-,N/A,,Overcast,0,2012-11-10 07:35:00
11:55 PM,30.2,24.8,80,29.80,5.0,Calm,Calm,-,N/A,,Mostly Cloudy,0,2012-11-10 07:55:00